Time,TemperatureF,DewpointF,PressureIn,WindDirection,WindDirectionDegrees,WindSpeedMPH,WindSpeedGustMPH,Humidity,HourlyPrecipIn,Conditions,Clouds,dailyrainin,SoftwareType,DateUTC
2013-04-21 00:01:00,47.1,26.2,30.37,NW,314,0.0,4.0,44,0.00,,,0.00,meteohub,2013-04-21 04:01:00,
2013-04-21 00:06:00,46.9,26.2,30.37,NNE,29,2.0,5.0,44,0.00,,,0.00,meteohub,2013-04-21 04:06:00,
2013-04-21 00:11:00,46.9,26.2,30.37,NNW,332,0.0,5.0,44,0.00,,,0.00,meteohub,2013-04-21 04:11:00,
2013-04-21 00:16:00,46.8,27.1,30.38,NNE,18,0.0,5.0,46,0.00,,,0.00,meteohub,2013-04-21 04:16:00,
2013-04-21 00:21:00,46.6,27.0,30.38,NW,324,0.0,4.0,46,0.00,,,0.00,meteohub,2013-04-21 04:21:00,
2013-04-21 00:26:00,46.2,27.1,30.38,NNW,336,3.0,4.0,47,0.00,,,0.00,meteohub,2013-04-21 04:26:00,
2013-04-21 00:31:00,46.2,27.1,30.38,West,277,1.0,5.0,47,0.00,,,0.00,meteohub,2013-04-21 04:31:00,
2013-04-21 00:36:00,46.0,26.4,30.38,NW,324,1.0,5.0,46,0.00,,,0.00,meteohub,2013-04-21 04:36:00,
2013-04-21 00:41:00,46.0,27.0,30.38,West,260,0.0,5.0,47,0.00,,,0.00,meteohub,2013-04-21 04:41:00,
2013-04-21 00:46:00,45.9,26.8,30.39,NW,315,0.0,6.0,47,0.00,,,0.00,meteohub,2013-04-21 04:46:00,
2013-04-21 00:51:00,45.7,26.6,30.39,SW,231,0.0,6.0,47,0.00,,,0.00,meteohub,2013-04-21 04:51:00,
2013-04-21 00:56:00,45.7,26.6,30.39,WNW,290,3.0,6.0,47,0.00,,,0.00,meteohub,2013-04-21 04:56:00,
2013-04-21 01:01:00,45.5,26.4,30.39,NE,44,1.0,4.0,47,0.00,,,0.00,meteohub,2013-04-21 05:01:00,
2013-04-21 01:06:00,45.5,27.0,30.39,NNE,13,1.0,4.0,48,0.00,,,0.00,meteohub,2013-04-21 05:06:00,
2013-04-21 01:11:00,45.1,26.6,30.39,WNW,295,4.0,4.0,48,0.00,,,0.00,meteohub,2013-04-21 05:11:00,
2013-04-21 01:16:00,45.3,26.8,30.39,NNW,337,1.0,5.0,48,0.00,,,0.00,meteohub,2013-04-21 05:16:00,
2013-04-21 01:21:00,45.1,26.6,30.40,East,83,0.0,5.0,48,0.00,,,0.00,meteohub,2013-04-21 05:21:00,
2013-04-21 01:26:00,45.1,26.6,30.40,ENE,75,3.0,5.0,48,0.00,,,0.00,meteohub,2013-04-21 05:26:00,
2013-04-21 01:31:00,45.0,27.0,30.40,North,8,1.0,4.0,49,0.00,,,0.00,meteohub,2013-04-21 05:31:00,
2013-04-21 01:36:00,45.0,26.4,30.40,NW,311,0.0,4.0,48,0.00,,,0.00,meteohub,2013-04-21 05:36:00,
2013-04-21 01:41:00,45.0,26.4,30.40,ENE,70,1.0,7.0,48,0.00,,,0.00,meteohub,2013-04-21 05:41:00,
2013-04-21 01:46:00,44.8,26.2,30.41,NW,314,1.0,7.0,48,0.00,,,0.00,meteohub,2013-04-21 05:46:00,
2013-04-21 01:51:00,44.6,26.6,30.41,NNE,25,0.0,7.0,49,0.00,,,0.00,meteohub,2013-04-21 05:51:00,
2013-04-21 01:56:00,44.2,26.2,30.41,ENE,76,0.0,6.0,49,0.00,,,0.00,meteohub,2013-04-21 05:56:00,
2013-04-21 02:01:00,44.2,26.2,30.41,ENE,63,1.0,6.0,49,0.00,,,0.00,meteohub,2013-04-21 06:01:00,
2013-04-21 02:06:00,44.1,26.6,30.41,WSW,258,0.0,2.0,50,0.00,,,0.00,meteohub,2013-04-21 06:06:00,
2013-04-21 02:11:00,43.9,25.9,30.41,NNE,21,0.0,3.0,49,0.00,,,0.00,meteohub,2013-04-21 06:11:00,
2013-04-21 02:17:00,43.9,26.4,30.41,NE,51,0.0,3.0,50,0.00,,,0.00,meteohub,2013-04-21 06:17:00,
2013-04-21 02:22:00,43.7,26.2,30.41,North,6,0.0,3.0,50,0.00,,,0.00,meteohub,2013-04-21 06:22:00,
2013-04-21 02:27:00,43.5,25.7,30.41,NNE,14,0.0,2.0,49,0.00,,,0.00,meteohub,2013-04-21 06:27:00,
2013-04-21 02:32:00,43.3,25.5,30.42,WSW,249,1.0,1.0,49,0.00,,,0.00,meteohub,2013-04-21 06:32:00,
2013-04-21 02:37:00,43.2,25.7,30.42,NNW,333,1.0,3.0,50,0.00,,,0.00,meteohub,2013-04-21 06:37:00,
2013-04-21 02:42:00,43.0,26.1,30.42,North,11,1.0,3.0,51,0.00,,,0.00,meteohub,2013-04-21 06:42:00,
2013-04-21 02:47:00,43.0,27.0,30.42,North,6,0.0,3.0,53,0.00,,,0.00,meteohub,2013-04-21 06:47:00,
2013-04-21 02:52:00,42.6,26.2,30.42,WNW,293,0.0,2.0,52,0.00,,,0.00,meteohub,2013-04-21 06:52:00,
2013-04-21 02:57:00,42.4,26.1,30.42,West,260,0.0,1.0,52,0.00,,,0.00,meteohub,2013-04-21 06:57:00,
2013-04-21 03:02:00,42.3,26.8,30.43,NW,311,0.0,1.0,54,0.00,,,0.00,meteohub,2013-04-21 07:02:00,
2013-04-21 03:07:00,42.1,26.6,30.43,North,10,1.0,2.0,54,0.00,,,0.00,meteohub,2013-04-21 07:07:00,
2013-04-21 03:12:00,41.9,26.4,30.43,NNW,342,0.0,2.0,54,0.00,,,0.00,meteohub,2013-04-21 07:12:00,
2013-04-21 03:17:00,41.7,25.9,30.43,NW,314,0.0,2.0,53,0.00,,,0.00,meteohub,2013-04-21 07:17:00,
2013-04-21 03:22:00,41.7,25.9,30.43,NW,326,0.0,1.0,53,0.00,,,0.00,meteohub,2013-04-21 07:22:00,
2013-04-21 03:27:00,41.9,26.4,30.44,NNW,342,1.0,1.0,54,0.00,,,0.00,meteohub,2013-04-21 07:27:00,
2013-04-21 03:32:00,41.9,26.4,30.44,NNE,20,0.0,3.0,54,0.00,,,0.00,meteohub,2013-04-21 07:32:00,
2013-04-21 03:37:00,41.9,26.1,30.44,NNW,331,0.0,3.0,53,0.00,,,0.00,meteohub,2013-04-21 07:37:00,
2013-04-21 03:41:00,41.9,26.1,30.44,NNE,26,4.0,4.0,53,0.00,,,0.00,meteohub,2013-04-21 07:41:00,
2013-04-21 03:47:00,41.9,26.4,30.45,North,8,2.0,7.0,54,0.00,,,0.00,meteohub,2013-04-21 07:47:00,
2013-04-21 03:51:00,41.9,26.1,30.45,North,0,0.0,7.0,53,0.00,,,0.00,meteohub,2013-04-21 07:51:00,
2013-04-21 03:57:00,41.7,25.9,30.45,North,358,1.0,7.0,53,0.00,,,0.00,meteohub,2013-04-21 07:57:00,
2013-04-21 04:02:00,41.5,25.7,30.45,NE,49,2.0,3.0,53,0.00,,,0.00,meteohub,2013-04-21 08:02:00,
2013-04-21 04:07:00,41.4,25.9,30.46,NNW,333,1.0,4.0,54,0.00,,,0.00,meteohub,2013-04-21 08:07:00,
2013-04-21 04:12:00,41.4,25.9,30.46,North,8,1.0,4.0,54,0.00,,,0.00,meteohub,2013-04-21 08:12:00,
2013-04-21 04:17:00,41.2,26.2,30.46,WNW,293,0.0,4.0,55,0.00,,,0.00,meteohub,2013-04-21 08:17:00,
2013-04-21 04:22:00,40.8,25.9,30.46,North,353,1.0,3.0,55,0.00,,,0.00,meteohub,2013-04-21 08:22:00,
2013-04-21 04:27:00,40.6,26.2,30.47,NW,311,0.0,3.0,56,0.00,,,0.00,meteohub,2013-04-21 08:27:00,
2013-04-21 04:32:00,40.6,25.7,30.47,ENE,57,2.0,5.0,55,0.00,,,0.00,meteohub,2013-04-21 08:32:00,
2013-04-21 04:37:00,40.6,26.2,30.47,NNE,25,0.0,5.0,56,0.00,,,0.00,meteohub,2013-04-21 08:37:00,
2013-04-21 04:42:00,40.6,25.7,30.48,NNE,21,0.0,5.0,55,0.00,,,0.00,meteohub,2013-04-21 08:42:00,
2013-04-21 04:47:00,40.6,26.2,30.48,NNE,33,0.0,4.0,56,0.00,,,0.00,meteohub,2013-04-21 08:47:00,
2013-04-21 04:52:00,40.5,26.1,30.48,NNW,344,1.0,4.0,56,0.00,,,0.00,meteohub,2013-04-21 08:52:00,
2013-04-21 04:57:00,40.5,26.1,30.48,East,99,2.0,5.0,56,0.00,,,0.00,meteohub,2013-04-21 08:57:00,
2013-04-21 05:02:00,40.3,25.9,30.48,NE,39,3.0,5.0,56,0.00,,,0.00,meteohub,2013-04-21 09:02:00,
2013-04-21 05:07:00,40.3,25.3,30.49,NE,52,1.0,5.0,55,0.00,,,0.00,meteohub,2013-04-21 09:07:00,
2013-04-21 05:12:00,40.3,25.3,30.49,NE,34,0.0,5.0,55,0.00,,,0.00,meteohub,2013-04-21 09:12:00,
2013-04-21 05:17:00,39.9,25.5,30.49,NNE,22,4.0,9.0,56,0.00,,,0.00,meteohub,2013-04-21 09:17:00,
2013-04-21 05:22:00,39.9,25.5,30.50,NNW,336,3.0,9.0,56,0.00,,,0.00,meteohub,2013-04-21 09:22:00,
2013-04-21 05:27:00,39.7,25.7,30.50,NE,46,2.0,6.0,57,0.00,,,0.00,meteohub,2013-04-21 09:27:00,
2013-04-21 05:32:00,39.6,25.2,30.50,ENE,63,2.0,6.0,56,0.00,,,0.00,meteohub,2013-04-21 09:32:00,
2013-04-21 05:37:00,39.6,25.2,30.51,East,101,2.0,6.0,56,0.00,,,0.00,meteohub,2013-04-21 09:37:00,
2013-04-21 05:42:00,39.4,25.0,30.51,NNE,19,2.0,6.0,56,0.00,,,0.00,meteohub,2013-04-21 09:42:00,
2013-04-21 05:47:00,39.4,25.0,30.51,ESE,115,0.0,6.0,56,0.00,,,0.00,meteohub,2013-04-21 09:47:00,
2013-04-21 05:52:00,39.2,25.2,30.52,NW,316,0.0,6.0,57,0.00,,,0.00,meteohub,2013-04-21 09:52:00,
2013-04-21 05:57:00,38.8,25.3,30.52,ENE,75,0.0,4.0,58,0.00,,,0.00,meteohub,2013-04-21 09:57:00,
2013-04-21 06:02:00,38.7,24.8,30.53,ENE,70,0.0,4.0,57,0.00,,,0.00,meteohub,2013-04-21 10:02:00,
2013-04-21 06:07:00,38.5,25.0,30.53,North,5,0.0,3.0,58,0.00,,,0.00,meteohub,2013-04-21 10:07:00,
2013-04-21 06:12:00,38.5,24.6,30.53,ENE,63,0.0,3.0,57,0.00,,,0.00,meteohub,2013-04-21 10:12:00,
2013-04-21 06:17:00,38.5,25.0,30.53,ESE,108,0.0,2.0,58,0.00,,,0.00,meteohub,2013-04-21 10:17:00,
2013-04-21 06:22:00,38.3,24.4,30.54,NE,46,2.0,2.0,57,0.00,,,0.00,meteohub,2013-04-21 10:22:00,
2013-04-21 06:27:00,38.1,24.3,30.54,East,86,0.0,4.0,57,0.00,,,0.00,meteohub,2013-04-21 10:27:00,
2013-04-21 06:32:00,38.1,24.6,30.55,ESE,115,0.0,4.0,58,0.00,,,0.00,meteohub,2013-04-21 10:32:00,
2013-04-21 06:37:00,38.1,24.3,30.55,NE,39,0.0,4.0,57,0.00,,,0.00,meteohub,2013-04-21 10:37:00,
2013-04-21 06:42:00,38.1,24.3,30.55,NE,36,0.0,4.0,57,0.00,,,0.00,meteohub,2013-04-21 10:42:00,
2013-04-21 06:47:00,37.9,25.0,30.55,NE,50,0.0,2.0,59,0.00,,,0.00,meteohub,2013-04-21 10:47:00,
2013-04-21 06:52:00,37.9,24.1,30.56,North,7,0.0,2.0,57,0.00,,,0.00,meteohub,2013-04-21 10:52:00,
2013-04-21 06:57:00,38.1,23.9,30.56,NE,37,1.0,4.0,56,0.00,,,0.00,meteohub,2013-04-21 10:57:00,
2013-04-21 07:01:00,38.5,23.7,30.56,NNE,25,0.0,4.0,55,0.00,,,0.00,meteohub,2013-04-21 11:01:00,
2013-04-21 07:06:00,38.5,23.7,30.57,NE,48,1.0,4.0,55,0.00,,,0.00,meteohub,2013-04-21 11:06:00,
2013-04-21 07:11:00,38.7,23.4,30.57,North,11,2.0,4.0,54,0.00,,,0.00,meteohub,2013-04-21 11:11:00,
2013-04-21 07:16:00,38.8,24.1,30.57,ENE,70,0.0,5.0,55,0.00,,,0.00,meteohub,2013-04-21 11:16:00,
2013-04-21 07:21:00,39.0,23.4,30.58,NNE,29,2.0,5.0,53,0.00,,,0.00,meteohub,2013-04-21 11:21:00,
2013-04-21 07:26:00,39.6,23.4,30.58,NNW,346,3.0,5.0,52,0.00,,,0.00,meteohub,2013-04-21 11:26:00,
2013-04-21 07:31:00,39.9,23.2,30.58,North,359,2.0,6.0,51,0.00,,,0.00,meteohub,2013-04-21 11:31:00,
2013-04-21 07:36:00,39.9,23.2,30.58,NE,49,1.0,6.0,51,0.00,,,0.00,meteohub,2013-04-21 11:36:00,
2013-04-21 07:41:00,40.1,23.0,30.58,ENE,73,3.0,9.0,50,0.00,,,0.00,meteohub,2013-04-21 11:41:00,
2013-04-21 07:46:00,40.3,23.5,30.59,West,281,0.0,9.0,51,0.00,,,0.00,meteohub,2013-04-21 11:46:00,
2013-04-21 07:51:00,40.5,22.3,30.59,NNE,25,4.0,9.0,48,0.00,,,0.00,meteohub,2013-04-21 11:51:00,
2013-04-21 07:56:00,40.8,21.6,30.59,NNW,340,4.0,8.0,46,0.00,,,0.00,meteohub,2013-04-21 11:56:00,
2013-04-21 08:01:00,40.8,21.2,30.59,NNE,15,3.0,9.0,45,0.00,,,0.00,meteohub,2013-04-21 12:01:00,
2013-04-21 08:06:00,41.4,22.1,30.60,NE,56,6.0,12.0,46,0.00,,,0.00,meteohub,2013-04-21 12:06:00,
2013-04-21 08:12:00,41.5,21.7,30.60,North,1,4.0,12.0,45,0.00,,,0.00,meteohub,2013-04-21 12:12:00,
2013-04-21 08:16:00,41.5,21.2,30.60,North,349,4.0,10.0,44,0.00,,,0.00,meteohub,2013-04-21 12:16:00,
2013-04-21 08:21:00,41.5,21.2,30.60,NNE,23,5.0,12.0,44,0.00,,,0.00,meteohub,2013-04-21 12:21:00,
2013-04-21 08:26:00,41.7,21.4,30.60,NE,41,4.0,12.0,44,0.00,,,0.00,meteohub,2013-04-21 12:26:00,
2013-04-21 08:31:00,42.1,21.2,30.60,NNW,330,2.0,12.0,43,0.00,,,0.00,meteohub,2013-04-21 12:31:00,
2013-04-21 08:37:00,42.4,21.0,30.61,East,83,4.0,10.0,42,0.00,,,0.00,meteohub,2013-04-21 12:37:00,
2013-04-21 08:42:00,42.4,20.5,30.60,NNE,19,5.0,10.0,41,0.00,,,0.00,meteohub,2013-04-21 12:42:00,
2013-04-21 08:47:00,42.4,19.8,30.60,North,349,6.0,11.0,40,0.00,,,0.00,meteohub,2013-04-21 12:47:00,
2013-04-21 08:52:00,42.4,20.5,30.60,ENE,61,4.0,11.0,41,0.00,,,0.00,meteohub,2013-04-21 12:52:00,
2013-04-21 08:57:00,42.4,19.8,30.61,NNW,345,6.0,12.0,40,0.00,,,0.00,meteohub,2013-04-21 12:57:00,
2013-04-21 09:02:00,42.4,20.5,30.61,NNW,335,6.0,14.0,41,0.00,,,0.00,meteohub,2013-04-21 13:02:00,
2013-04-21 09:07:00,42.4,20.5,30.61,North,351,6.0,14.0,41,0.00,,,0.00,meteohub,2013-04-21 13:07:00,
2013-04-21 09:11:00,43.0,21.4,30.61,North,354,8.0,9.0,42,0.00,,,0.00,meteohub,2013-04-21 13:11:00,
2013-04-21 09:17:00,42.6,19.9,30.61,NW,322,2.0,9.0,40,0.00,,,0.00,meteohub,2013-04-21 13:17:00,
2013-04-21 09:22:00,43.2,20.5,30.61,NW,318,6.0,10.0,40,0.00,,,0.00,meteohub,2013-04-21 13:22:00,
2013-04-21 09:27:00,43.2,19.9,30.61,WNW,293,4.0,10.0,39,0.00,,,0.00,meteohub,2013-04-21 13:27:00,
2013-04-21 09:32:00,43.3,20.7,30.61,North,357,7.0,10.0,40,0.00,,,0.00,meteohub,2013-04-21 13:32:00,
2013-04-21 09:37:00,43.9,20.5,30.61,NNE,18,9.0,14.0,39,0.00,,,0.00,meteohub,2013-04-21 13:37:00,
2013-04-21 09:42:00,43.7,21.0,30.61,NW,315,4.0,15.0,40,0.00,,,0.00,meteohub,2013-04-21 13:42:00,
2013-04-21 09:47:00,43.7,20.3,30.61,NNW,336,4.0,15.0,39,0.00,,,0.00,meteohub,2013-04-21 13:47:00,
2013-04-21 09:52:00,43.9,21.2,30.61,NE,45,5.0,15.0,40,0.00,,,0.00,meteohub,2013-04-21 13:52:00,
2013-04-21 09:57:00,43.7,20.3,30.62,NNE,26,1.0,15.0,39,0.00,,,0.00,meteohub,2013-04-21 13:57:00,
2013-04-21 10:02:00,44.4,21.0,30.61,NW,311,0.0,15.0,39,0.00,,,0.00,meteohub,2013-04-21 14:02:00,
2013-04-21 10:07:00,45.0,21.6,30.62,NNW,340,7.0,15.0,39,0.00,,,0.00,meteohub,2013-04-21 14:07:00,
2013-04-21 10:12:00,44.8,21.4,30.62,NW,311,1.0,9.0,39,0.00,,,0.00,meteohub,2013-04-21 14:12:00,
2013-04-21 10:17:00,45.1,22.3,30.62,North,1,2.0,9.0,40,0.00,,,0.00,meteohub,2013-04-21 14:17:00,
2013-04-21 10:22:00,45.1,22.3,30.62,NW,320,2.0,9.0,40,0.00,,,0.00,meteohub,2013-04-21 14:22:00,
2013-04-21 10:27:00,45.3,21.7,30.62,East,94,2.0,8.0,39,0.00,,,0.00,meteohub,2013-04-21 14:27:00,
2013-04-21 10:31:00,44.8,21.4,30.62,North,359,3.0,9.0,39,0.00,,,0.00,meteohub,2013-04-21 14:31:00,
2013-04-21 10:37:00,44.4,21.0,30.62,ENE,72,4.0,9.0,39,0.00,,,0.00,meteohub,2013-04-21 14:37:00,
2013-04-21 10:42:00,44.6,22.3,30.62,NNE,26,2.0,9.0,41,0.00,,,0.00,meteohub,2013-04-21 14:42:00,
2013-04-21 10:47:00,45.1,23.4,30.62,NNW,327,3.0,9.0,42,0.00,,,0.00,meteohub,2013-04-21 14:47:00,
2013-04-21 10:52:00,45.0,21.6,30.62,ENE,65,5.0,8.0,39,0.00,,,0.00,meteohub,2013-04-21 14:52:00,
2013-04-21 10:57:00,45.0,21.6,30.62,WNW,295,0.0,9.0,39,0.00,,,0.00,meteohub,2013-04-21 14:57:00,
2013-04-21 11:02:00,45.0,22.1,30.63,ESE,115,0.0,9.0,40,0.00,,,0.00,meteohub,2013-04-21 15:02:00,
2013-04-21 11:07:00,45.5,22.6,30.63,North,351,6.0,9.0,40,0.00,,,0.00,meteohub,2013-04-21 15:07:00,
2013-04-21 11:12:00,45.5,23.2,30.62,NNE,22,5.0,10.0,41,0.00,,,0.00,meteohub,2013-04-21 15:12:00,
2013-04-21 11:17:00,45.7,22.8,30.62,NNW,333,2.0,10.0,40,0.00,,,0.00,meteohub,2013-04-21 15:17:00,
2013-04-21 11:22:00,45.9,22.3,30.62,NNE,15,1.0,10.0,39,0.00,,,0.00,meteohub,2013-04-21 15:22:00,
2013-04-21 11:27:00,46.4,22.8,30.62,North,11,5.0,9.0,39,0.00,,,0.00,meteohub,2013-04-21 15:27:00,
2013-04-21 11:32:00,46.2,21.9,30.62,ENE,72,4.0,12.0,38,0.00,,,0.00,meteohub,2013-04-21 15:32:00,
2013-04-21 11:37:00,46.0,21.9,30.62,NE,49,9.0,12.0,38,0.00,,,0.00,meteohub,2013-04-21 15:37:00,
2013-04-21 11:42:00,46.2,21.9,30.62,NNW,337,3.0,14.0,38,0.00,,,0.00,meteohub,2013-04-21 15:42:00,
2013-04-21 11:47:00,45.9,21.0,30.62,WNW,294,4.0,14.0,37,0.00,,,0.00,meteohub,2013-04-21 15:47:00,
2013-04-21 11:52:00,46.0,21.9,30.62,NW,305,6.0,14.0,38,0.00,,,0.00,meteohub,2013-04-21 15:52:00,
2013-04-21 11:57:00,46.2,22.6,30.62,SE,124,3.0,12.0,39,0.00,,,0.00,meteohub,2013-04-21 15:57:00,
2013-04-21 12:02:00,46.9,22.6,30.62,ESE,110,1.0,9.0,38,0.00,,,0.00,meteohub,2013-04-21 16:02:00,
2013-04-21 12:07:00,46.9,22.6,30.62,NNW,328,3.0,10.0,38,0.00,,,0.00,meteohub,2013-04-21 16:07:00,
2013-04-21 12:12:00,46.9,22.1,30.61,NE,38,2.0,10.0,37,0.00,,,0.00,meteohub,2013-04-21 16:12:00,
2013-04-21 12:17:00,46.8,23.2,30.61,ENE,65,4.0,10.0,39,0.00,,,0.00,meteohub,2013-04-21 16:17:00,
2013-04-21 12:22:00,46.8,22.5,30.61,ESE,123,2.0,10.0,38,0.00,,,0.00,meteohub,2013-04-21 16:22:00,
2013-04-21 12:27:00,46.9,22.1,30.61,NE,44,3.0,9.0,37,0.00,,,0.00,meteohub,2013-04-21 16:27:00,
2013-04-21 12:32:00,47.1,24.1,30.61,ENE,63,4.0,12.0,40,0.00,,,0.00,meteohub,2013-04-21 16:32:00,
2013-04-21 12:37:00,47.8,24.1,30.60,NNW,342,0.0,12.0,39,0.00,,,0.00,meteohub,2013-04-21 16:37:00,
2013-04-21 12:42:00,48.0,23.0,30.61,NNW,339,3.0,12.0,37,0.00,,,0.00,meteohub,2013-04-21 16:42:00,
2013-04-21 12:47:00,48.0,24.8,30.60,North,349,3.0,12.0,40,0.00,,,0.00,meteohub,2013-04-21 16:47:00,
2013-04-21 12:52:00,48.4,23.9,30.60,SE,135,0.0,12.0,38,0.00,,,0.00,meteohub,2013-04-21 16:52:00,
2013-04-21 12:57:00,48.7,24.3,30.60,SE,131,2.0,11.0,38,0.00,,,0.00,meteohub,2013-04-21 16:57:00,
2013-04-21 13:02:00,49.1,23.4,30.60,WNW,285,2.0,8.0,36,0.00,,,0.00,meteohub,2013-04-21 17:02:00,
2013-04-21 13:07:00,49.1,23.9,30.60,ESE,109,3.0,8.0,37,0.00,,,0.00,meteohub,2013-04-21 17:07:00,
2013-04-21 13:12:00,49.3,25.3,30.60,ENE,62,1.0,8.0,39,0.00,,,0.00,meteohub,2013-04-21 17:12:00,
2013-04-21 13:17:00,49.1,23.4,30.59,NW,318,7.0,8.0,36,0.00,,,0.00,meteohub,2013-04-21 17:17:00,
2013-04-21 13:22:00,49.1,22.6,30.59,East,79,3.0,10.0,35,0.00,,,0.00,meteohub,2013-04-21 17:22:00,
2013-04-21 13:27:00,48.9,23.7,30.59,East,86,6.0,10.0,37,0.00,,,0.00,meteohub,2013-04-21 17:27:00,
2013-04-21 13:32:00,49.6,23.2,30.58,NE,36,6.0,10.0,35,0.00,,,0.00,meteohub,2013-04-21 17:32:00,
2013-04-21 13:37:00,49.3,21.4,30.59,ENE,76,1.0,10.0,33,0.00,,,0.00,meteohub,2013-04-21 17:37:00,
2013-04-21 13:42:00,49.5,23.5,30.59,West,262,4.0,10.0,36,0.00,,,0.00,meteohub,2013-04-21 17:42:00,
2013-04-21 13:47:00,49.6,21.7,30.58,NNW,342,3.0,10.0,33,0.00,,,0.00,meteohub,2013-04-21 17:47:00,
2013-04-21 13:52:00,50.2,22.1,30.59,NNW,344,5.0,9.0,33,0.00,,,0.00,meteohub,2013-04-21 17:52:00,
2013-04-21 13:57:00,50.0,21.4,30.59,NNE,25,5.0,9.0,32,0.00,,,0.00,meteohub,2013-04-21 17:57:00,
2013-04-21 14:02:00,49.8,20.3,30.58,WNW,302,0.0,9.0,31,0.00,,,0.00,meteohub,2013-04-21 18:02:00,
2013-04-21 14:07:00,50.2,22.8,30.58,ENE,73,4.0,8.0,34,0.00,,,0.00,meteohub,2013-04-21 18:07:00,
2013-04-21 14:12:00,50.5,22.5,30.58,West,274,2.0,8.0,33,0.00,,,0.00,meteohub,2013-04-21 18:12:00,
2013-04-21 14:17:00,50.9,22.8,30.58,WSW,242,4.0,8.0,33,0.00,,,0.00,meteohub,2013-04-21 18:17:00,
2013-04-21 14:22:00,51.4,23.4,30.58,SW,218,4.0,8.0,33,0.00,,,0.00,meteohub,2013-04-21 18:22:00,
2013-04-21 14:27:00,52.2,23.9,30.58,North,6,1.0,6.0,33,0.00,,,0.00,meteohub,2013-04-21 18:27:00,
2013-04-21 14:32:00,51.6,23.4,30.58,North,358,2.0,8.0,33,0.00,,,0.00,meteohub,2013-04-21 18:32:00,
2013-04-21 14:37:00,51.3,21.6,30.58,SSE,155,1.0,8.0,31,0.00,,,0.00,meteohub,2013-04-21 18:37:00,
2013-04-21 14:42:00,51.3,22.5,30.57,WSW,250,1.0,8.0,32,0.00,,,0.00,meteohub,2013-04-21 18:42:00,
2013-04-21 14:47:00,51.1,23.0,30.57,ENE,68,5.0,8.0,33,0.00,,,0.00,meteohub,2013-04-21 18:47:00,
2013-04-21 14:52:00,51.4,23.4,30.57,NE,47,0.0,7.0,33,0.00,,,0.00,meteohub,2013-04-21 18:52:00,
2013-04-21 14:57:00,51.8,23.5,30.57,East,88,1.0,7.0,33,0.00,,,0.00,meteohub,2013-04-21 18:57:00,
2013-04-21 15:02:00,52.0,25.9,30.57,WNW,295,1.0,7.0,36,0.00,,,0.00,meteohub,2013-04-21 19:02:00,
2013-04-21 15:07:00,52.3,23.4,30.56,SSE,155,0.0,7.0,32,0.00,,,0.00,meteohub,2013-04-21 19:07:00,
2013-04-21 15:12:00,52.5,22.8,30.56,WNW,283,2.0,6.0,31,0.00,,,0.00,meteohub,2013-04-21 19:12:00,
2013-04-21 15:17:00,52.3,22.6,30.56,East,97,2.0,4.0,31,0.00,,,0.00,meteohub,2013-04-21 19:17:00,
2013-04-21 15:22:00,52.5,21.2,30.55,NW,321,1.0,6.0,29,0.00,,,0.00,meteohub,2013-04-21 19:22:00,
2013-04-21 15:27:00,53.1,23.2,30.55,NNE,12,3.0,6.0,31,0.00,,,0.00,meteohub,2013-04-21 19:27:00,
2013-04-21 15:32:00,53.2,23.4,30.55,WNW,296,5.0,7.0,31,0.00,,,0.00,meteohub,2013-04-21 19:32:00,
2013-04-21 15:37:00,53.1,23.2,30.55,WSW,255,2.0,7.0,31,0.00,,,0.00,meteohub,2013-04-21 19:37:00,
2013-04-21 15:42:00,53.2,23.4,30.55,NW,307,6.0,7.0,31,0.00,,,0.00,meteohub,2013-04-21 19:42:00,
2013-04-21 15:47:00,53.1,21.6,30.55,ESE,122,2.0,7.0,29,0.00,,,0.00,meteohub,2013-04-21 19:47:00,
2013-04-21 15:52:00,52.5,21.2,30.55,ENE,77,0.0,8.0,29,0.00,,,0.00,meteohub,2013-04-21 19:52:00,
2013-04-21 15:57:00,52.7,21.4,30.55,East,97,2.0,8.0,29,0.00,,,0.00,meteohub,2013-04-21 19:57:00,
2013-04-21 16:02:00,52.9,21.6,30.55,ESE,115,1.0,6.0,29,0.00,,,0.00,meteohub,2013-04-21 20:02:00,
2013-04-21 16:07:00,53.2,25.5,30.55,NE,53,2.0,6.0,34,0.00,,,0.00,meteohub,2013-04-21 20:07:00,
2013-04-21 16:12:00,53.4,21.9,30.55,NE,47,0.0,7.0,29,0.00,,,0.00,meteohub,2013-04-21 20:12:00,
2013-04-21 16:17:00,52.9,21.6,30.55,NNE,12,4.0,7.0,29,0.00,,,0.00,meteohub,2013-04-21 20:17:00,
2013-04-21 16:22:00,53.1,23.2,30.54,West,281,2.0,8.0,31,0.00,,,0.00,meteohub,2013-04-21 20:22:00,
2013-04-21 16:27:00,52.9,21.6,30.54,WNW,294,0.0,8.0,29,0.00,,,0.00,meteohub,2013-04-21 20:27:00,
2013-04-21 16:32:00,53.1,22.5,30.54,NNE,19,4.0,6.0,30,0.00,,,0.00,meteohub,2013-04-21 20:32:00,
2013-04-21 16:37:00,53.2,24.1,30.54,NNE,31,4.0,5.0,32,0.00,,,0.00,meteohub,2013-04-21 20:37:00,
2013-04-21 16:42:00,53.1,23.9,30.54,NNE,28,4.0,6.0,32,0.00,,,0.00,meteohub,2013-04-21 20:42:00,
2013-04-21 16:47:00,52.9,23.0,30.54,NW,305,3.0,7.0,31,0.00,,,0.00,meteohub,2013-04-21 20:47:00,
2013-04-21 16:52:00,53.1,25.3,30.54,North,353,0.0,7.0,34,0.00,,,0.00,meteohub,2013-04-21 20:52:00,
2013-04-21 16:57:00,53.4,23.5,30.54,ENE,67,3.0,7.0,31,0.00,,,0.00,meteohub,2013-04-21 20:57:00,
2013-04-21 17:02:00,53.6,24.4,30.54,NNE,20,3.0,5.0,32,0.00,,,0.00,meteohub,2013-04-21 21:02:00,
2013-04-21 17:07:00,53.2,23.4,30.55,WNW,285,1.0,8.0,31,0.00,,,0.00,meteohub,2013-04-21 21:07:00,
2013-04-21 17:12:00,53.6,23.7,30.54,SE,135,2.0,8.0,31,0.00,,,0.00,meteohub,2013-04-21 21:12:00,
2013-04-21 17:17:00,53.4,23.5,30.54,ENE,72,4.0,8.0,31,0.00,,,0.00,meteohub,2013-04-21 21:17:00,
2013-04-21 17:22:00,53.2,23.4,30.54,ESE,122,0.0,7.0,31,0.00,,,0.00,meteohub,2013-04-21 21:22:00,
2013-04-21 17:27:00,53.2,24.1,30.54,ESE,105,2.0,7.0,32,0.00,,,0.00,meteohub,2013-04-21 21:27:00,
2013-04-21 17:32:00,53.2,24.1,30.54,ENE,71,0.0,7.0,32,0.00,,,0.00,meteohub,2013-04-21 21:32:00,
2013-04-21 17:37:00,53.8,23.9,30.54,ENE,61,4.0,4.0,31,0.00,,,0.00,meteohub,2013-04-21 21:37:00,
2013-04-21 17:42:00,54.0,24.8,30.54,NE,46,3.0,5.0,32,0.00,,,0.00,meteohub,2013-04-21 21:42:00,
2013-04-21 17:47:00,54.0,23.2,30.55,ESE,122,2.0,5.0,30,0.00,,,0.00,meteohub,2013-04-21 21:47:00,
2013-04-21 17:52:00,54.0,23.2,30.55,East,89,1.0,5.0,30,0.00,,,0.00,meteohub,2013-04-21 21:52:00,
2013-04-21 17:57:00,53.8,23.0,30.55,East,94,0.0,6.0,30,0.00,,,0.00,meteohub,2013-04-21 21:57:00,
2013-04-21 18:02:00,54.7,25.3,30.55,WNW,290,1.0,6.0,32,0.00,,,0.00,meteohub,2013-04-21 22:02:00,
2013-04-21 18:07:00,54.3,24.3,30.55,ENE,64,1.0,6.0,31,0.00,,,0.00,meteohub,2013-04-21 22:07:00,
2013-04-21 18:12:00,54.5,24.4,30.55,East,79,1.0,6.0,31,0.00,,,0.00,meteohub,2013-04-21 22:12:00,
2013-04-21 18:17:00,54.5,23.7,30.55,East,100,2.0,6.0,30,0.00,,,0.00,meteohub,2013-04-21 22:17:00,
2013-04-21 18:22:00,54.0,25.5,30.55,SE,131,2.0,6.0,33,0.00,,,0.00,meteohub,2013-04-21 22:22:00,
2013-04-21 18:27:00,53.2,26.2,30.55,ESE,104,0.0,4.0,35,0.00,,,0.00,meteohub,2013-04-21 22:27:00,
2013-04-21 18:32:00,53.4,27.1,30.55,ESE,118,2.0,6.0,36,0.00,,,0.00,meteohub,2013-04-21 22:32:00,
2013-04-21 18:37:00,53.1,28.0,30.55,ESE,112,1.0,6.0,38,0.00,,,0.00,meteohub,2013-04-21 22:37:00,
2013-04-21 18:42:00,52.9,28.6,30.56,ESE,120,1.0,6.0,39,0.00,,,0.00,meteohub,2013-04-21 22:42:00,
2013-04-21 18:47:00,52.5,27.7,30.56,SSE,149,3.0,6.0,38,0.00,,,0.00,meteohub,2013-04-21 22:47:00,
2013-04-21 18:52:00,52.0,28.4,30.56,ESE,123,2.0,6.0,40,0.00,,,0.00,meteohub,2013-04-21 22:52:00,
2013-04-21 18:57:00,51.8,29.5,30.56,ESE,113,3.0,7.0,42,0.00,,,0.00,meteohub,2013-04-21 22:57:00,
2013-04-21 19:02:00,51.3,27.7,30.56,ESE,102,1.0,7.0,40,0.00,,,0.00,meteohub,2013-04-21 23:02:00,
2013-04-21 19:07:00,50.9,28.0,30.56,ESE,110,2.0,7.0,41,0.00,,,0.00,meteohub,2013-04-21 23:07:00,
2013-04-21 19:12:00,50.7,27.9,30.56,ENE,75,1.0,6.0,41,0.00,,,0.00,meteohub,2013-04-21 23:12:00,
2013-04-21 19:17:00,50.5,28.2,30.56,ESE,105,3.0,5.0,42,0.00,,,0.00,meteohub,2013-04-21 23:17:00,
2013-04-21 19:22:00,50.4,28.2,30.56,East,90,1.0,5.0,42,0.00,,,0.00,meteohub,2013-04-21 23:22:00,
2013-04-21 19:27:00,50.2,28.0,30.56,ESE,114,1.0,5.0,42,0.00,,,0.00,meteohub,2013-04-21 23:27:00,
2013-04-21 19:32:00,49.8,27.7,30.56,East,79,2.0,5.0,42,0.00,,,0.00,meteohub,2013-04-21 23:32:00,
2013-04-21 19:37:00,49.6,27.5,30.56,ENE,76,3.0,5.0,42,0.00,,,0.00,meteohub,2013-04-21 23:37:00,
2013-04-21 19:42:00,49.5,27.3,30.56,East,84,2.0,5.0,42,0.00,,,0.00,meteohub,2013-04-21 23:42:00,
2013-04-21 19:47:00,49.1,27.0,30.57,ESE,105,1.0,7.0,42,0.00,,,0.00,meteohub,2013-04-21 23:47:00,
2013-04-21 19:52:00,48.9,26.8,30.57,ESE,108,1.0,7.0,42,0.00,,,0.00,meteohub,2013-04-21 23:52:00,
2013-04-21 19:57:00,48.7,27.3,30.57,East,80,1.0,7.0,43,0.00,,,0.00,meteohub,2013-04-21 23:57:00,
2013-04-21 20:02:00,48.6,27.1,30.57,East,89,1.0,4.0,43,0.00,,,0.00,meteohub,2013-04-22 00:02:00,
2013-04-21 20:07:00,48.4,27.0,30.57,ESE,113,1.0,4.0,43,0.00,,,0.00,meteohub,2013-04-22 00:07:00,
2013-04-21 20:12:00,48.4,27.0,30.57,ESE,114,1.0,3.0,43,0.00,,,0.00,meteohub,2013-04-22 00:12:00,
2013-04-21 20:17:00,48.0,26.6,30.57,SE,129,0.0,3.0,43,0.00,,,0.00,meteohub,2013-04-22 00:17:00,
2013-04-21 20:22:00,47.8,27.0,30.57,ESE,115,0.0,3.0,44,0.00,,,0.00,meteohub,2013-04-22 00:22:00,
2013-04-21 20:27:00,47.7,26.2,30.57,ESE,109,0.0,2.0,43,0.00,,,0.00,meteohub,2013-04-22 00:27:00,
2013-04-21 20:32:00,47.7,26.8,30.58,SE,127,0.0,4.0,44,0.00,,,0.00,meteohub,2013-04-22 00:32:00,
2013-04-21 20:37:00,47.5,26.6,30.58,SE,145,2.0,4.0,44,0.00,,,0.00,meteohub,2013-04-22 00:37:00,
2013-04-21 20:42:00,47.5,27.1,30.58,SE,138,1.0,4.0,45,0.00,,,0.00,meteohub,2013-04-22 00:42:00,
2013-04-21 20:47:00,47.1,26.2,30.58,ESE,103,1.0,4.0,44,0.00,,,0.00,meteohub,2013-04-22 00:47:00,
2013-04-21 20:52:00,47.1,26.8,30.58,ESE,113,0.0,4.0,45,0.00,,,0.00,meteohub,2013-04-22 00:52:00,
2013-04-21 20:57:00,46.9,26.8,30.58,ESE,113,0.0,3.0,45,0.00,,,0.00,meteohub,2013-04-22 00:57:00,
2013-04-21 21:02:00,46.8,27.1,30.58,ESE,110,0.0,2.0,46,0.00,,,0.00,meteohub,2013-04-22 01:02:00,
2013-04-21 21:07:00,46.6,27.0,30.58,ESE,110,0.0,3.0,46,0.00,,,0.00,meteohub,2013-04-22 01:07:00,
2013-04-21 21:12:00,46.4,26.8,30.58,ESE,110,0.0,3.0,46,0.00,,,0.00,meteohub,2013-04-22 01:12:00,
2013-04-21 21:17:00,46.2,27.1,30.58,ESE,110,0.0,1.0,47,0.00,,,0.00,meteohub,2013-04-22 01:17:00,
2013-04-21 21:22:00,45.9,28.2,30.59,ESE,110,0.0,1.0,50,0.00,,,0.00,meteohub,2013-04-22 01:22:00,
2013-04-21 21:27:00,45.3,28.2,30.59,ESE,110,0.0,1.0,51,0.00,,,0.00,meteohub,2013-04-22 01:27:00,
2013-04-21 21:32:00,44.8,28.8,30.59,ESE,110,0.0,0.0,53,0.00,,,0.00,meteohub,2013-04-22 01:32:00,
2013-04-21 21:37:00,44.2,28.6,30.59,ESE,110,0.0,0.0,54,0.00,,,0.00,meteohub,2013-04-22 01:37:00,
2013-04-21 21:42:00,43.9,29.1,30.59,ESE,110,0.0,0.0,56,0.00,,,0.00,meteohub,2013-04-22 01:42:00,
2013-04-21 21:47:00,43.5,28.9,30.59,ESE,110,0.0,0.0,56,0.00,,,0.00,meteohub,2013-04-22 01:47:00,
2013-04-21 21:52:00,43.2,29.3,30.59,ESE,110,0.0,0.0,58,0.00,,,0.00,meteohub,2013-04-22 01:52:00,
2013-04-21 21:57:00,42.8,28.6,30.59,ESE,110,0.0,0.0,57,0.00,,,0.00,meteohub,2013-04-22 01:57:00,
2013-04-21 22:02:00,42.6,28.4,30.59,ESE,110,0.0,0.0,57,0.00,,,0.00,meteohub,2013-04-22 02:02:00,
2013-04-21 22:07:00,42.4,29.1,30.60,ESE,110,0.0,0.0,59,0.00,,,0.00,meteohub,2013-04-22 02:07:00,
2013-04-21 22:12:00,42.3,29.8,30.60,ESE,110,0.0,0.0,61,0.00,,,0.00,meteohub,2013-04-22 02:12:00,
2013-04-21 22:17:00,41.7,30.0,30.60,ESE,110,0.0,0.0,63,0.00,,,0.00,meteohub,2013-04-22 02:17:00,
2013-04-21 22:22:00,41.5,30.7,30.60,ESE,110,0.0,0.0,65,0.00,,,0.00,meteohub,2013-04-22 02:22:00,
2013-04-21 22:27:00,41.4,31.3,30.60,ESE,110,0.0,0.0,67,0.00,,,0.00,meteohub,2013-04-22 02:27:00,
2013-04-21 22:32:00,41.0,30.9,30.60,ESE,110,0.0,0.0,67,0.00,,,0.00,meteohub,2013-04-22 02:32:00,
2013-04-21 22:37:00,40.6,30.9,30.60,ESE,110,0.0,0.0,68,0.00,,,0.00,meteohub,2013-04-22 02:37:00,
2013-04-21 22:42:00,40.5,31.1,30.60,ESE,110,0.0,0.0,69,0.00,,,0.00,meteohub,2013-04-22 02:42:00,
2013-04-21 22:47:00,40.1,30.7,30.60,ESE,110,0.0,0.0,69,0.00,,,0.00,meteohub,2013-04-22 02:47:00,
2013-04-21 22:52:00,39.6,30.6,30.60,ESE,110,0.0,0.0,70,0.00,,,0.00,meteohub,2013-04-22 02:52:00,
2013-04-21 22:57:00,39.4,31.1,30.60,ESE,110,0.0,0.0,72,0.00,,,0.00,meteohub,2013-04-22 02:57:00,
2013-04-21 23:02:00,39.0,31.1,30.60,ESE,110,0.0,0.0,73,0.00,,,0.00,meteohub,2013-04-22 03:02:00,
2013-04-21 23:07:00,38.8,30.9,30.60,ESE,110,0.0,0.0,73,0.00,,,0.00,meteohub,2013-04-22 03:07:00,
2013-04-21 23:12:00,38.7,30.7,30.61,ESE,110,0.0,0.0,73,0.00,,,0.00,meteohub,2013-04-22 03:12:00,
2013-04-21 23:17:00,38.5,31.3,30.61,ESE,110,0.0,0.0,75,0.00,,,0.00,meteohub,2013-04-22 03:17:00,
2013-04-21 23:22:00,38.5,31.3,30.60,ESE,110,0.0,0.0,75,0.00,,,0.00,meteohub,2013-04-22 03:22:00,
2013-04-21 23:27:00,38.5,30.9,30.60,ESE,110,0.0,0.0,74,0.00,,,0.00,meteohub,2013-04-22 03:27:00,
2013-04-21 23:32:00,38.8,30.9,30.61,ESE,110,0.0,0.0,73,0.00,,,0.00,meteohub,2013-04-22 03:32:00,
2013-04-21 23:37:00,39.2,31.3,30.61,ESE,110,0.0,0.0,73,0.00,,,0.00,meteohub,2013-04-22 03:37:00,
2013-04-21 23:42:00,39.6,30.9,30.61,ENE,67,0.0,2.0,71,0.00,,,0.00,meteohub,2013-04-22 03:42:00,
2013-04-21 23:47:00,40.3,31.3,30.61,ENE,66,0.0,2.0,70,0.00,,,0.00,meteohub,2013-04-22 03:47:00,
2013-04-21 23:52:00,40.6,31.3,30.61,ESE,104,0.0,2.0,69,0.00,,,0.00,meteohub,2013-04-22 03:52:00,
2013-04-21 23:57:00,41.4,32.0,30.61,East,89,0.0,2.0,69,0.00,,,0.00,meteohub,2013-04-22 03:57:00,